Regional Weather Roundup
Issued by NWS Charleston, SC

Current Version | Previous Version | Graphics & Text | Print | Product List | Glossary On
Versions: 1 2 3 4 5 6 7 8 9 10 11 12 13 14 15 16 17 18 19 20 21 22 23 24 25 26 27 28 29 30 31 32 33 34 35 36 37 38 39 40 41 42 43 44 45 46 47 48 49 50
000
ASUS42 KCHS 270728
RWRCHS

REGIONAL WEATHER ROUNDUP
NATIONAL WEATHER SERVICE CHARLESTON SC
300 AM EDT WED JUL 27 2016

NOTE: "FAIR" INDICATES FEW OR NO CLOUDS BELOW 12,000 FEET WITH NO
SIGNIFICANT WEATHER AND/OR OBSTRUCTIONS TO VISIBILITY.

NOT ALL STATIONS ARE QUALITY CONTROLLED. USE DATA WITH CAUTION...
ESPECIALLY DEWPOINT OBSERVATIONS.

SCZ027-030-031-034>040-042>050-270800-
...SOUTHEAST SOUTH CAROLINA...

CITY           SKY/WX    TMP DP  RH WIND       PRES   REMARKS
N CHARLESTON   CLEAR     82  76  81 SW7       30.02S
WATERFRONT PRK   N/A     84  79  85 SW6       30.00S HX  96
MOUNT PLEASANT FAIR      82  79  89 SW6       30.02S HX  93
JOHNS ISLAND   FAIR      84  79  84 SW7       30.02S HX  96
PINOPOLIS        N/A     81  77  89 SW8       29.95S
MONCKS CORNER  FAIR      77  73  88 SW7       30.02S
SUMMERVILLE    FAIR      77  77 100 CALM      30.03F
BEAUFORT MCAS  CLEAR     82  74  76 SW9       30.03F
BEAUFORT ARPT  FAIR      82  75  78 SW8       30.03S
HILTON HEAD IS CLEAR     82  75  78 VRB7      30.04S
WALTERBORO     SUNNY     81  81 100 SW5       30.03F HX  91
ALLENDALE      FAIR      79  75  89 CALM      30.03S

...SOUTHERN MIDLANDS AND PEE DEE...

CITY           SKY/WX    TMP DP  RH WIND       PRES   REMARKS
GEORGETOWN     FAIR      77  73  88 SW6       30.02F
KINGSTREE      FAIR      77  72  83 CALM      30.01S
ORANGEBURG     CLEAR     77  74  90 SW6       30.03S
BARNWELL       NOT AVBL
AIKEN          FAIR      77  70  78 SW7       30.06F
MANNING        FAIR      79  73  83 SW5       30.01F
COLUMBIA       CLEAR     82  72  71 SW8       30.00S
SUMTER         CLEAR     81  74  79 SW9       29.99S
FLORENCE       CLEAR     81  74  79 SW8       30.00S
MYRTLE BEACH   CLEAR     81  70  69 W10G16    30.02F
N MYRTLE BEACH CLEAR     82  74  76 SW10      30.00R

$$

GAZ063-065-086>088-099>101-113>116-118-119-134>141-150-270800-
...SOUTHEAST GEORGIA...

CITY           SKY/WX    TMP DP  RH WIND       PRES   REMARKS
SAVANNAH ARPT  CLEAR     81  73  76 SW10      30.05S
HUNTER AAF     CLEAR     80  77  91 SW7       30.02F
FORT STEWART   CLEAR     79  73  84 SW3       30.03F
STATESBORO     CLEAR     80  74  81 W3        30.04F
SYLVANIA       NOT AVBL
CLAXTON        FAIR      78  75  91 CALM      30.05S

...CSRA...CENTRAL AND FAR SOUTHEAST GEORGIA...

CITY           SKY/WX    TMP DP  RH WIND       PRES   REMARKS
THOMSON        NOT AVBL
AUGUSTA-BUSH   CLEAR     76  72  87 CALM      30.02F
AUGUSTA-DANIEL CLEAR     83  71  67 VRB3      30.04S
SWAINSBORO     FAIR      79  72  78 CALM      30.06F
VIDALIA        CLEAR     77  72  83 CALM      30.06S
EASTMAN        FAIR      77  76  96 CALM      30.09S
HAZLEHURST     FAIR      79  76  89 CALM      30.05F
ALMA           CLEAR     77  72  84 SW3       30.06F
WAYCROSS       CLEAR     78  77  96 CALM      30.07F
JESUP          FAIR      75  75 100 CALM      30.07S
BAXLEY         FAIR      79  79 100 CALM      30.06F
BRUNSWICK      CLEAR     79  77  94 SW3       30.07F
SAINT SIMONS   PTCLDY    81  75  82 SW7       30.07R

$$

SCZ027-028-034-036>038-045-046-048>050-GAZ119-141-270800-
...LAKE AND SUPPLEMENTAL COASTAL OBSERVATIONS...

STATION/POSITION TIME  TEMP    WIND        PRES    WAVE   SWELL
                       AIR SEA DIR/SP/G            HT/PER HT/PER/DIR
                 (UTC) (F)     (DEG/KT/KT) (MB)    (FT/S) (FT/S/D)
WINYAH BAY       0600   81     250/  6     1015.0F
LAKE MURRAY      NOT AVBL
ACE BASIN NERRS  0600   84     230/  2     1017.0S
FORT PULASKI     0700   83 87  240/  8/ 12 1017.7S
SAPELO ISLAND    0700   82     230/  9     1018.0S

$$

ANZ835-935-AMZ111-154-330-350-352-354-370-450-454-472-270800-
...C-MAN AND BUOY OBSERVATIONS...

STATION/POSITION TIME  TEMP    WIND        PRES    WAVE   SWELL
                       AIR SEA DIR/SP/G            HT/PER HT/PER/DIR
                 (UTC) (F)     (DEG/KT/KT) (MB)    (FT/S) (FT/S/D)
BUOY 41004       0650   85 86  240/ 17/ 21 1016.1S   4/ 5   2/160/ 8
BUOY 41008       0650   86 87  220/ 16/ 17 1017.2F   2/ 4
FOLLY BEACH CMAN 0700   85     240/  7/ 11 1016.8F
CAPERS NEARSHORE 0608   85 83  240/ 16/ 23 1016.4R
FRIPP NEARSHORE  0608   86 87  230/ 17/ 23 1016.3F


STATION/POSITION TIME  TEMP    WIND        PRES    WAVE   SWELL
                       AIR SEA DIR/SP/G            HT/PER HT/PER/DIR
                 (UTC) (F)     (DEG/KT/KT) (MB)    (FT/S) (FT/S/D)
5E ST. MARYS GA  0701      86                N/A     2/ 4
FRYING PAN BUOY  0700   85 85  240/ 17/ 21 1015.8R
BUOY 41025       0650   84 85  250/ 17/ 21 1014.5R   5/ 6
CAPE LOOKOUT NC  0700   83     250/ 12/ 15 1014.8F
BUOY 41002       0650   84 84  240/ 12/ 16 1017.2F   3/ 8   2/130/ 8
BUOY 41010       0620   85 86  180/ 12/ 14 1018.5F
ST AUGUSTINE FL  0700   78 85  240/  4/  5 1019.2F


$$




USA.gov is the U.S. government's official web portal to all federal, state and local government web resources and services.